Location: Bun Machan
(52.1403°N, 7.3744°W)
Time: 19:08:56
(UTC+00:00)

Abrixas rocket - Pass Details

Date: 14 July 2020
Orbit: 338 x 346 km, 48.4° (Epoch: 11 August)

Event Time Altitude Azimuth Distance (km) Brightness Sun altitude
Exits shadow 01:34:10 32° 143° (SE) 616 2.7 -15.1°
Drops below altitude 10° 01:36:09 10° 110° (ESE) 1,282 4.7 -15.0°
Sets 01:38:13 0° 102° (ESE) 2,119 5.9 -15.0°
